weather.gov     
National Weather Service

Terminal Aerodrome Forecast
NWS Homepage
This page is being discontinued on March 12, 2014.
The same data is available at this site. Please update your bookmarks.
Thank you, and we apologize for the inconvenience.
Please send an email to SR-SRH.Webmaster@noaa.gov with any concerns.


Current Version
Previous Version:    01  02  03  04  05  06  07  08  09  10  11  12  13  14  15  16  17  18  19  20  21  22  23  24  25  26  27  28  29  30  
   31  32  33  
[Printable]
451
FTAK31 PANC 252330
TAFADL
TAF
PADL 252330Z 2600/2624 VRB03KT P6SM SCT020 BKN035
     FM260300 VRB03KT P6SM VCSH BKN030
     FM260700 34005KT P6SM SCT040
     FM261600 04012KT P6SM SCT010 BKN035
     FM262200 14005KT P6SM -SHSN SCT010 BKN020=




451
FTAK31 PANC 252330
TAFADL
TAF
PADL 252330Z 2600/2624 VRB03KT P6SM SCT020 BKN035
     FM260300 VRB03KT P6SM VCSH BKN030
     FM260700 34005KT P6SM SCT040
     FM261600 04012KT P6SM SCT010 BKN035
     FM262200 14005KT P6SM -SHSN SCT010 BKN020=


U.S. Dept. of Commerce
NOAA National Weather Service
1325 East West Highway
Silver Spring, MD 20910
E-mail: w-nws.webmaster@noaa.gov
Page last modified: May 16, 2007
NATIONAL WEATHER SERVICE: for Safety, for Work, for Fun - FOR LIFE